Regional Weather Roundup
Issued by NWS

Home | Current Version | Previous Version | Text Only | Print | Product List | Glossary On
Versions: 1 2 3 4 5 6 7 8 9 10 11 12 13 14 15 16 17 18 19 20 21 22 23 24 25 26 27 28 29 30 31 32 33 34 35 36 37 38 39 40 41 42 43 44 45 46 47 48 49 50
000
ASUS43 KDMX 301108
RWRIA

WEATHER ROUNDUP FOR IOWA
NATIONAL WEATHER SERVICE DES MOINES IA
600 AM CDT SAT APR 30 2016

NOTE: "FAIR" INDICATES FEW OR NO CLOUDS BELOW 12,000 FEET WITH NO
SIGNIFICANT WEATHER AND/OR OBSTRUCTIONS TO VISIBILITY.

* - THESE STATIONS ARE NOT NWS STATIONS...THUS NOT UNDER NWS
QUALITY CONTROL.  THEY ALSO DO NOT REPORT WEATHER SUCH
AS PRECIPITATION OR FOG.

IAZ001>003-012>014-020>022-031>034-043>046-301200-
   NORTHWEST IOWA

CITY           SKY/WX    TMP DP  RH WIND       PRES   REMARKS
CARROLL *      MIX PCPN  43  43 100 E24G30    29.83F
CHEROKEE *     DRIZZLE   43  41  93 NE20G25   29.87F
DENISON *      LGT RAIN  43  41  93 E22G33    29.78F
LE MARS *      LGT RAIN  45  41  87 E16G23    29.88S
ORANGE CITY *  DRIZZLE   45  39  81 E17G25    29.87F
SHELDON *      MOCLDY    45  39  81 E23G30    29.89F
SIOUX CITY     HVY RAIN  45  41  86 E20G28    29.84F FOG
SPENCER        CLOUDY    44  38  79 NE23G29   29.91F
STORM LAKE *   MIX PCPN  43  41  93 E26G36    29.85F
$$

IAZ055>058-069>071-079>083-090>094-301200-
   SOUTHWEST IOWA

CITY           SKY/WX    TMP DP  RH WIND       PRES   REMARKS
ATLANTIC *     LGT RAIN  45  43  93 E17G29    29.75F
AUDUBON *      RAIN      43  39  87 E21G26    29.80F
CLARINDA *       N/A    N/A N/A N/A MISG        N/A
COUNCIL BLFS * RAIN      45  45 100 E16G28    29.73F
CRESTON *      CLOUDY    45  45 100 E26G32    29.74F
HARLAN  *      RAIN      43  43 100 NE20G28   29.78F
LAMONI         CLOUDY    46  45  96 E17G24    29.73F
RED OAK *      HVY RAIN  46  45  93 E20       29.72F
SHENANDOAH *   LGT RAIN  46  46 100 E16G26    29.70F
$$

IAZ047>049-059>061-072>074-084-301200-
   CENTRAL IOWA

CITY           SKY/WX    TMP DP  RH WIND       PRES   REMARKS
AMES           CLOUDY    44  41  89 E14G25    29.87F
ANKENY *       LGT RAIN  45  45 100 E17G24    29.84F
BOONE *        CLOUDY    43  43 100 E24G32    29.85F FOG
CHARITON *     CLOUDY    46  45  93 E17G24    29.77F FOG
DES MOINES     LGT RAIN  46  42  86 E15G29    29.82F FOG
GRINNELL*      CLOUDY    45  41  87 NE21      29.88F FOG
KNOXVILLE *    CLOUDY    45  43  93 E20G28    29.79F FOG
MARSHALLTOWN   CLOUDY    44  41  89 E21       29.89F
NEWTON *       CLOUDY    45  45 100 E21G30    29.86F FOG
PELLA *        RAIN      45  45 100 E14G23    29.86F
$$

IAZ004>006-015-016-023>025-035-036-301200-
   NORTH CENTRAL IOWA

CITY           SKY/WX    TMP DP  RH WIND       PRES   REMARKS
ALGONA *       CLOUDY    45  41  87 NE15      29.93F
CLARION *      MIX PCPN  45  41  87 E20       29.91F
ESTHERVILLE    CLOUDY    43  39  86 NE18      29.95F
FORT DODGE *   CLOUDY    43  37  81 E17G23    29.90F
MASON CITY     CLOUDY    44  39  82 NE14      29.97F
FOREST CITY *  DRIZZLE   43  37  81 E14G21    29.95F
WEBSTER CITY * CLOUDY    45  41  87 E18       29.89S
IOWA FALLS *   CLOUDY    45  41  87 E16G25    29.92F
$$

IAZ007>011-017>019-026>030-037>042-050>054-066-301200-
   NORTHEAST IOWA

CITY           SKY/WX    TMP DP  RH WIND       PRES   REMARKS
CEDAR RAPIDS   LGT RAIN  44  43  96 E15       29.94F FOG
CHARLES CITY * CLOUDY    43  43 100 E14G20    29.98F
CLINTON *      LGT RAIN  45  41  86 E14       29.99S
DECORAH *      CLOUDY    43  39  87 E15       30.00F
DUBUQUE        CLOUDY    43  39  86 E9        30.01R
MONTICELLO *   CLOUDY    45  41  87 E10G17    29.99R
OELWEIN *      CLOUDY    43  41  93 E15       29.97F
WATERLOO       CLOUDY    44  39  82 E16       29.95F
$$

IAZ064-065-067-068-078-301200-
   EAST CENTRAL IOWA

CITY           SKY/WX    TMP DP  RH WIND       PRES   REMARKS
DAVENPORT      CLOUDY    44  41  89 E16G23    29.97F FOG
IOWA CITY      LGT RAIN  44  42  93 NE13G21   29.95F FOG
MT. PLEASANT * LGT RAIN  46  46 100 E18G24    29.88F
MUSCATINE *    CLOUDY    46  43  87 E8        29.94F FOG
QUAD CITIES    CLOUDY    46  42  86 E14       29.95F FOG
$$

IAZ062-063-075>077-085>089-095>099-301200-
   SOUTHEAST IOWA

CITY           SKY/WX    TMP DP  RH WIND       PRES   REMARKS
BURLINGTON     RAIN      46  46 100 E16G24    29.89F FOG
FAIRFIELD *    CLOUDY    45  45 100 E24       29.85F FOG
FORT MADISON * LGT RAIN  46  46 100 E16G25    29.87F
KEOKUK *       CLOUDY    48  46  93 E17       29.85F FOG
OSKALOOSA *    CLOUDY    45  43  93 E23G31    29.83F FOG
OTTUMWA        CLOUDY    45  44  97 E23G35    29.82F FOG
WASHINGTON *   LGT RAIN  45  45 100 E21G26    29.90F VSB 1
$$

ABBREVIATIONS USED IN REMARKS
   TC - TEMPERATURES IN CELSIUS
  WCI - WIND CHILL INDEX
   HX - HEAT INDEX
  VSB - VISIBILITY
$$





USA.gov is the U.S. government's official web portal to all federal, state and local government web resources and services.